Tracking 22993 objects as of 10-May-2021
HD Live streaming from Space Station
objects crossing your sky now

COSMOS 1249 COOLANT

Track COSMOS 1249 COOLANT now!
10-day predictions


NORAD ID: 26505
Int'l Code: 1981-021G
Perigee: 890.6 km
Apogee: 970.7 km
Inclination: 65.0 °
Period: 103.5 minutes
Semi major axis: 7301 km
RCS: 0.0062 m2 (small)
Launch date: March 5, 1981
Source: Commonwealth of Independent States (former USSR) (CIS)
Launch site: TYURATAM MISSILE AND SPACE COMPLEX (TTMTR)

Note: This is SATELLITE DEBRIS
aabbcc
Your satellite tracking list
Your tracking list is empty




NASA's NSSDC Master Catalog

Two Line Element Set (TLE):
1 26505U 81021G   20293.47626227 -.00000091  00000-0  00000+0 0  9992
2 26505  64.9653 322.3625 0054897 211.8778 147.8958 13.91459306 52902
Source of the keplerian elements: AFSPC